NR0A-4 Weather Reports


time (UTC)temp
F
wind
direction
speed
knots
gust
knots
rain 1hr
in
rain 24hr
in
rain mn
in
humidity
%
barometer
mb
20180421125812 44 59 0.0 0.0 0.00 0.00 0.00 65 1025.9
20180421125312 44 59 0.0 0.0 0.00 0.00 0.00 65 1025.9
20180421124812 44 59 0.0 0.0 0.00 0.00 0.00 65 1025.7
20180421124312 44 59 0.0 0.0 0.00 0.00 0.00 65 1025.7
20180421123812 44 59 0.0 0.0 0.00 0.00 0.00 65 1025.8
20180421123312 44 59 0.0 0.0 0.00 0.00 0.00 65 1025.9
20180421122812 44 59 0.0 0.0 0.00 0.00 0.00 65 1025.7
20180421122312 44 59 0.0 0.0 0.00 0.00 0.00 66 1025.7
20180421121812 44 59 0.0 0.0 0.00 0.00 0.00 66 1025.8
20180421121312 44 59 0.0 0.0 0.00 0.00 0.00 66 1025.7
20180421120812 43 59 0.0 0.0 0.00 0.00 0.00 66 1025.7
20180421120312 43 59 0.0 0.0 0.00 0.00 0.00 66 1025.6
20180421115812 43 59 0.0 0.0 0.00 0.00 0.00 66 1025.5
20180421115312 43 59 0.0 0.0 0.00 0.00 0.00 66 1025.5
20180421114812 43 59 0.0 0.0 0.00 0.00 0.00 67 1025.5
20180421114312 43 59 0.0 0.0 0.00 0.00 0.00 67 1025.6
20180421113812 43 59 0.0 0.0 0.00 0.00 0.00 67 1025.5
20180421113312 43 59 0.0 0.0 0.00 0.00 0.00 67 1025.5
20180421112812 43 59 0.0 0.0 0.00 0.00 0.00 67 1025.5
20180421112312 43 59 0.0 0.0 0.00 0.00 0.00 68 1025.7
20180421111812 43 59 0.0 0.0 0.00 0.00 0.00 68 1025.7
20180421111312 43 59 0.0 0.0 0.00 0.00 0.00 68 1025.6
20180421110812 42 59 0.0 0.0 0.00 0.00 0.00 69 1025.6
20180421110312 42 59 0.0 0.0 0.00 0.00 0.00 69 1025.6
20180421105812 42 59 0.0 0.0 0.00 0.00 0.00 69 1025.4
20180421105312 42 59 0.0 0.0 0.00 0.00 0.00 70 1025.4
20180421104811 42 59 0.0 0.0 0.00 0.00 0.00 70 1025.6
20180421104311 42 59 0.0 0.0 0.00 0.00 0.00 70 1025.5
20180421103812 43 59 0.0 0.0 0.00 0.00 0.00 70 1025.6
20180421103311 43 59 0.0 0.0 0.00 0.00 0.00 69 1025.6
20180421102811 43 59 0.0 0.0 0.00 0.00 0.00 69 1025.6
20180421102311 43 59 0.0 0.0 0.00 0.00 0.00 69 1025.7
20180421101810 43 59 0.0 0.0 0.00 0.00 0.00 68 1025.8
20180421101310 43 59 0.0 0.0 0.00 0.00 0.00 68 1025.9
20180421100810 43 59 0.0 0.0 0.00 0.00 0.00 68 1025.9
20180421100310 43 59 0.0 0.0 0.00 0.00 0.00 68 1025.8
20180421095810 43 59 0.0 0.0 0.00 0.00 0.00 68 1025.9
20180421095310 43 59 0.0 0.0 0.00 0.00 0.00 68 1025.9
20180421094810 43 59 0.0 0.0 0.00 0.00 0.00 68 1026.1
20180421094310 43 59 0.0 0.0 0.00 0.00 0.00 68 1026.1
20180421093810 43 59 0.0 0.0 0.00 0.00 0.00 68 1026.0
20180421093310 43 59 0.0 0.0 0.00 0.00 0.00 67 1026.0
20180421092810 43 59 0.0 0.0 0.00 0.00 0.00 67 1025.9
20180421092310 43 59 0.0 0.0 0.00 0.00 0.00 68 1026.1
20180421091820 43 59 0.0 0.0 0.00 0.00 0.00 68 1026.3
20180421091310 43 59 0.0 0.0 0.00 0.00 0.00 69 1026.3
20180421090810 43 59 0.0 0.0 0.00 0.00 0.00 69 1026.4
20180421090310 43 59 0.0 0.0 0.00 0.00 0.00 69 1026.4
20180421085810 43 59 0.0 0.0 0.00 0.00 0.00 69 1026.5
20180421085310 43 59 0.0 0.0 0.00 0.00 0.00 68 1026.5
20180421084810 43 59 0.0 0.0 0.00 0.00 0.00 68 1026.5
20180421084310 43 59 0.0 0.0 0.00 0.00 0.00 68 1026.6
20180421083810 43 59 0.0 0.0 0.00 0.00 0.00 67 1026.6
20180421083310 43 59 0.0 0.0 0.00 0.00 0.00 67 1026.6
20180421082810 43 59 0.0 0.0 0.00 0.00 0.00 67 1026.8
20180421082310 44 59 0.0 0.0 0.00 0.00 0.00 67 1026.8
20180421081810 44 59 0.0 0.0 0.00 0.00 0.00 66 1026.9
20180421081310 44 59 0.0 0.0 0.00 0.00 0.00 66 1027.0
20180421080810 44 59 0.0 0.0 0.00 0.00 0.00 66 1027.0
20180421080310 44 59 0.0 0.0 0.00 0.00 0.00 66 1027.0
20180421075810 44 59 0.0 0.0 0.00 0.00 0.00 66 1027.1
20180421075309 44 59 0.0 0.0 0.00 0.00 0.00 66 1027.3
20180421074809 44 59 0.0 0.0 0.00 0.00 0.00 66 1027.3
20180421074309 44 59 0.0 0.0 0.00 0.00 0.00 66 1027.4
20180421073809 44 59 0.0 0.0 0.00 0.00 0.00 66 1027.6
20180421073309 44 59 0.0 0.0 0.00 0.00 0.00 65 1027.8
20180421072809 44 59 0.0 0.0 0.00 0.00 0.00 64 1027.8
20180421072309 44 59 0.0 0.0 0.00 0.00 0.00 64 1027.5
20180421071814 44 59 0.0 0.0 0.00 0.00 0.00 64 1027.5
20180421071314 44 59 0.0 0.0 0.00 0.00 0.00 64 1027.5
20180421070814 44 59 0.0 0.0 0.00 0.00 0.00 64 1027.3
20180421070314 44 59 0.0 0.0 0.00 0.00 0.00 65 1027.0
20180421065814 44 59 0.0 0.0 0.00 0.00 0.00 65 1026.9
20180421065314 44 59 0.0 0.0 0.00 0.00 0.00 65 1026.7
20180421064814 44 53 5.2 6.1 0.00 0.00 0.00 65 1026.5
20180421064314 44 35 6.1 7.8 0.00 0.00 0.00 65 1026.2
20180421063814 44 48 6.1 7.8 0.00 0.00 0.00 64 1026.1
20180421063313 44 54 5.2 7.8 0.00 0.00 0.00 65 1026.1
20180421062813 44 47 5.2 8.7 0.00 0.00 0.00 64 1026.3
20180421062313 44 48 4.3 7.8 0.00 0.00 0.00 64 1026.6
20180421061815 44 45 4.3 8.7 0.00 0.00 0.00 64 1026.7
20180421061314 44 38 0.0 0.0 0.00 0.00 0.00 64 1026.7
20180421060814 44 38 0.0 0.0 0.00 0.00 0.00 64 1026.9
20180421060313 45 38 0.0 0.0 0.00 0.00 0.00 64 1027.0
20180421055813 45 38 0.0 0.0 0.00 0.00 0.00 64 1027.1
20180421055313 45 38 0.0 0.0 0.00 0.00 0.00 63 1027.2
20180421054813 45 38 0.0 0.0 0.00 0.00 0.00 63 1027.3
20180421054313 45 38 0.0 0.0 0.00 0.00 0.00 63 1027.2
20180421053813 45 38 0.0 0.0 0.00 0.00 0.00 63 1027.1
20180421053313 45 38 0.0 0.0 0.00 0.00 0.00 63 1027.2
20180421052813 45 38 0.0 0.0 0.00 0.00 0.00 64 1027.1
20180421052313 45 38 0.0 0.0 0.00 0.00 0.00 64 1027.0
20180421051812 45 38 0.0 0.0 0.00 0.00 0.00 64 1027.0
20180421051312 45 38 0.0 0.0 0.00 0.00 0.00 65 1026.9
20180421050812 45 38 0.0 0.0 0.00 0.00 0.00 65 1026.9
20180421050313 45 38 0.0 0.0 0.00 0.00 0.00 65 1027.0
20180421045812 45 38 0.0 0.0 0.00 0.00 0.00 66 1026.9
20180421045312 45 38 0.0 0.0 0.00 0.00 0.00 66 1026.8
20180421044810 45 38 0.0 0.0 0.00 0.00 0.00 66 1026.7
20180421044310 45 27 4.3 7.0 0.00 0.00 0.00 66 1026.7
20180421043810 45 38 4.3 6.1 0.00 0.00 0.00 66 1026.8
20180421043310 45 26 2.6 6.1 0.00 0.00 0.00 66 1026.9
20180421042810 45 33 2.6 6.1 0.00 0.00 0.00 66 1026.9
20180421042310 45 34 5.2 7.0 0.00 0.00 0.00 65 1026.8
20180421041810 45 26 4.3 5.2 0.00 0.00 0.00 65 1026.8
20180421041310 46 33 5.2 7.8 0.00 0.00 0.00 64 1026.7
20180421040810 46 39 5.2 7.0 0.00 0.00 0.00 64 1026.6
20180421040310 46 32 4.3 7.0 0.00 0.00 0.00 62 1026.6
20180421035810 47 32 4.3 8.7 0.00 0.00 0.00 60 1026.5
20180421035310 47 32 4.3 6.1 0.00 0.00 0.00 58 1026.6
20180421034810 48 25 6.1 10.4 0.00 0.00 0.00 54 1026.5
20180421034310 48 21 5.2 8.7 0.00 0.00 0.00 51 1026.6
20180421033810 48 39 7.0 8.7 0.00 0.00 0.00 50 1026.5
20180421033310 48 344 1.7 6.1 0.00 0.00 0.00 50 1026.6
20180421032810 48 27 2.6 6.1 0.00 0.00 0.00 49 1026.4
20180421032310 48 22 2.6 5.2 0.00 0.00 0.00 49 1026.5
20180421031810 48 19 1.7 4.3 0.00 0.00 0.00 49 1026.5
20180421031310 48 23 1.7 2.6 0.00 0.00 0.00 49 1026.6
20180421030810 48 7 0.9 2.6 0.00 0.00 0.00 49 1026.6
20180421030310 49 16 1.7 2.6 0.00 0.00 0.00 49 1026.6
20180421025810 49 9 0.9 2.6 0.00 0.00 0.00 48 1026.7
20180421025310 49 20 1.7 5.2 0.00 0.00 0.00 48 1026.8
20180421024810 49 9 0.9 2.6 0.00 0.00 0.00 47 1026.8
20180421024309 50 15 1.7 5.2 0.00 0.00 0.00 45 1026.9
20180421023814 50 25 0.9 2.6 0.00 0.00 0.00 44 1027.0
20180421023313 51 26 1.7 4.3 0.00 0.00 0.00 43 1027.0
20180421022813 51 33 1.7 5.2 0.00 0.00 0.00 42 1027.1
20180421022313 51 40 2.6 5.2 0.00 0.00 0.00 42 1027.1
20180421021813 51 40 2.6 4.3 0.00 0.00 0.00 42 1027.0
20180421021313 51 52 2.6 5.2 0.00 0.00 0.00 42 1026.9
20180421020813 51 48 4.3 6.1 0.00 0.00 0.00 42 1026.9
20180421020313 51 53 4.3 6.1 0.00 0.00 0.00 42 1026.9
20180421015813 51 56 1.7 4.3 0.00 0.00 0.00 42 1027.1
20180421015312 51 54 4.3 7.8 0.00 0.00 0.00 41 1026.9
20180421014811 51 52 2.6 4.3 0.00 0.00 0.00 42 1026.8
20180421014311 51 49 5.2 7.0 0.00 0.00 0.00 42 1026.7
20180421013811 51 38 5.2 7.0 0.00 0.00 0.00 42 1026.8
20180421013311 51 56 4.3 6.1 0.00 0.00 0.00 42 1026.8
20180421012811 51 51 2.6 4.3 0.00 0.00 0.00 42 1026.8
20180421012311 51 46 4.3 6.1 0.00 0.00 0.00 42 1026.8
20180421011811 51 51 2.6 4.3 0.00 0.00 0.00 42 1026.7
20180421011311 51 57 1.7 4.3 0.00 0.00 0.00 42 1026.7
20180421010811 51 57 2.6 5.2 0.00 0.00 0.00 41 1026.5
20180421010311 51 61 2.6 2.6 0.00 0.00 0.00 41 1026.4
20180421005811 51 52 2.6 4.3 0.00 0.00 0.00 41 1026.4
20180421005311 51 53 4.3 6.1 0.00 0.00 0.00 41 1026.3
20180421004811 52 56 2.6 5.2 0.00 0.00 0.00 41 1026.2
20180421004311 52 48 1.7 2.6 0.00 0.00 0.00 40 1026.2
20180421003811 52 47 4.3 5.2 0.00 0.00 0.00 40 1026.1
20180421003311 52 68 5.2 7.8 0.00 0.00 0.00 39 1026.1
20180421002811 52 87 4.3 6.1 0.00 0.00 0.00 39 1026.1
20180421002311 52 69 2.6 5.2 0.00 0.00 0.00 39 1026.0
20180421001811 52 60 4.3 7.0 0.00 0.00 0.00 39 1025.9
20180421001311 52 64 4.3 5.2 0.00 0.00 0.00 39 1025.7
20180421000811 52 47 2.6 8.7 0.00 0.00 0.00 40 1025.9
20180421000311 52 68 4.3 6.1 0.00 0.00 0.00 39 1025.7
20180420235810 52 52 2.6 5.2 0.00 0.00 0.00 40 1025.7
20180420235310 52 58 4.3 7.8 0.00 0.00 0.00 40 1025.7
20180420234810 53 52 4.3 7.8 0.00 0.00 0.00 39 1025.9
20180420234310 53 48 5.2 7.0 0.00 0.00 0.00 39 1026.0
20180420233809 53 51 4.3 7.8 0.00 0.00 0.00 39 1026.1
20180420233309 53 54 1.7 7.0 0.00 0.00 0.00 40 1026.1
20180420232809 53 63 1.7 7.0 0.00 0.00 0.00 39 1026.2
20180420232309 53 48 5.2 10.4 0.00 0.00 0.00 38 1026.1
20180420231809 53 56 2.6 4.3 0.00 0.00 0.00 38 1026.0
20180420231308 54 56 4.3 7.0 0.00 0.00 0.00 38 1026.0
20180420230808 54 75 2.6 4.3 0.00 0.00 0.00 38 1025.9
20180420230307 54 76 4.3 7.0 0.00 0.00 0.00 37 1025.9
20180420225807 54 49 5.2 10.4 0.00 0.00 0.00 37 1025.7
20180420225307 54 57 4.3 6.1 0.00 0.00 0.00 36 1025.9
20180420224812 54 61 4.3 5.2 0.00 0.00 0.00 37 1025.7
20180420224312 55 87 6.1 12.2 0.00 0.00 0.00 36 1026.0
20180420223812 55 101 4.3 6.1 0.00 0.00 0.00 36 1026.0
20180420223312 55 88 4.3 4.3 0.00 0.00 0.00 36 1026.2
20180420222812 55 119 4.3 6.1 0.00 0.00 0.00 36 1026.2
20180420222312 55 109 4.3 7.0 0.00 0.00 0.00 36 1026.2
20180420221812 55 122 4.3 5.2 0.00 0.00 0.00 36 1026.3
20180420221312 55 115 1.7 4.3 0.00 0.00 0.00 37 1026.5
20180420220812 55 131 4.3 6.1 0.00 0.00 0.00 37 1026.5
20180420220311 55 116 5.2 7.0 0.00 0.00 0.00 36 1026.5
20180420215811 55 116 4.3 6.1 0.00 0.00 0.00 37 1026.5
20180420215311 54 127 4.3 6.1 0.00 0.00 0.00 37 1026.4
20180420214811 54 107 5.2 8.7 0.00 0.00 0.00 36 1026.5
20180420214311 54 127 4.3 5.2 0.00 0.00 0.00 38 1026.5
20180420213811 54 105 4.3 7.8 0.00 0.00 0.00 38 1026.4
20180420213310 54 122 5.2 7.0 0.00 0.00 0.00 37 1026.2
20180420212810 54 122 5.2 7.8 0.00 0.00 0.00 36 1026.1
20180420212311 54 113 4.3 7.8 0.00 0.00 0.00 37 1025.9
20180420211810 54 127 5.2 8.7 0.00 0.00 0.00 36 1025.6
20180420211310 54 101 4.3 7.0 0.00 0.00 0.00 37 1025.4
20180420210810 54 111 5.2 7.0 0.00 0.00 0.00 36 1025.3
20180420210309 54 113 6.1 7.8 0.00 0.00 0.00 36 1025.1
20180420205809 55 94 7.8 14.8 0.00 0.00 0.00 35 1024.9
20180420205309 55 97 2.6 11.3 0.00 0.00 0.00 37 1024.9
20180420204809 55 106 5.2 7.8 0.00 0.00 0.00 37 1025.0
20180420204309 55 114 4.3 12.2 0.00 0.00 0.00 37 1025.2
20180420203809 55 119 6.1 10.4 0.00 0.00 0.00 36 1025.4
20180420203309 55 171 6.1 10.4 0.00 0.00 0.00 36 1025.4
20180420202809 55 115 5.2 8.7 0.00 0.00 0.00 36 1025.4
20180420202309 55 109 6.1 8.7 0.00 0.00 0.00 37 1025.6
20180420201809 55 131 6.1 13.0 0.00 0.00 0.00 36 1025.5
20180420201309 55 135 6.1 8.7 0.00 0.00 0.00 36 1025.4
20180420200809 55 117 6.1 12.2 0.00 0.00 0.00 37 1025.3
20180420200309 55 135 7.0 11.3 0.00 0.00 0.00 36 1025.4
20180420195809 55 131 6.1 7.8 0.00 0.00 0.00 37 1025.3
20180420195309 55 88 8.7 12.2 0.00 0.00 0.00 36 1025.5
20180420194809 54 122 5.2 7.8 0.00 0.00 0.00 38 1025.6
20180420194308 54 97 7.0 12.2 0.00 0.00 0.00 38 1025.7
20180420193808 54 112 5.2 7.8 0.00 0.00 0.00 38 1026.0
20180420193308 54 131 5.2 7.0 0.00 0.00 0.00 39 1026.0
20180420192808 54 112 5.2 10.4 0.00 0.00 0.00 40 1026.0
20180420192308 54 124 7.0 10.4 0.00 0.00 0.00 39 1026.1
20180420191808 54 115 6.1 10.4 0.00 0.00 0.00 39 1026.2
20180420191308 53 96 7.8 12.2 0.00 0.00 0.00 40 1026.1
20180420190808 53 101 5.2 13.0 0.00 0.00 0.00 40 1026.2
20180420190308 53 121 7.0 7.8 0.00 0.00 0.00 41 1026.3
20180420185808 53 122 7.0 8.7 0.00 0.00 0.00 41 1026.4
20180420185308 53 104 7.8 13.0 0.00 0.00 0.00 40 1026.6
20180420184812 54 115 5.2 7.8 0.00 0.00 0.00 41 1026.7
20180420184312 54 104 4.3 15.6 0.00 0.00 0.00 40 1026.7
20180420183812 54 120 5.2 7.8 0.00 0.00 0.00 41 1026.8
20180420183312 54 146 7.0 13.0 0.00 0.00 0.00 40 1026.8
20180420182812 54 145 7.0 12.2 0.00 0.00 0.00 41 1026.8
20180420182312 53 164 7.8 11.3 0.00 0.00 0.00 41 1026.8
20180420181812 53 132 7.0 13.9 0.00 0.00 0.00 43 1026.9
20180420181312 53 103 6.1 8.7 0.00 0.00 0.00 44 1026.9
20180420180812 53 129 7.0 13.9 0.00 0.00 0.00 43 1027.1
20180420180311 52 111 6.1 10.4 0.00 0.00 0.00 45 1027.2
20180420175811 52 113 7.0 11.3 0.00 0.00 0.00 45 1027.5
20180420175312 52 148 6.1 7.8 0.00 0.00 0.00 47 1027.7
20180420174811 51 137 4.3 8.7 0.00 0.00 0.00 47 1027.8
20180420174311 51 136 6.1 11.3 0.00 0.00 0.00 48 1027.9
20180420173811 51 110 7.8 13.0 0.00 0.00 0.00 46 1027.9
20180420173311 51 137 5.2 11.3 0.00 0.00 0.00 48 1027.9
20180420172811 51 114 6.1 10.4 0.00 0.00 0.00 47 1028.0
20180420172311 51 117 7.8 13.0 0.00 0.00 0.00 47 1028.1
20180420171811 51 149 7.0 11.3 0.00 0.00 0.00 48 1028.3
20180420171311 50 139 7.0 11.3 0.00 0.00 0.00 47 1028.2
20180420170811 50 169 5.2 11.3 0.00 0.00 0.00 50 1028.2
20180420170311 50 146 7.0 11.3 0.00 0.00 0.00 50 1028.4
20180420165811 49 150 7.8 11.3 0.00 0.00 0.00 51 1028.3
20180420165311 49 106 7.0 13.0 0.00 0.00 0.00 52 1028.3
20180420164811 49 115 5.2 8.7 0.00 0.00 0.00 52 1028.5
20180420164311 49 142 6.1 13.0 0.00 0.00 0.00 52 1028.5
20180420163811 48 112 4.3 7.0 0.00 0.00 0.00 55 1028.5
20180420163311 48 133 5.2 7.0 0.00 0.00 0.00 54 1028.5
20180420162811 48 122 4.3 7.0 0.00 0.00 0.00 55 1028.5
20180420162311 47 115 4.3 7.8 0.00 0.00 0.00 56 1028.6
20180420161811 47 122 4.3 7.8 0.00 0.00 0.00 57 1028.6
20180420161311 47 107 5.2 10.4 0.00 0.00 0.00 58 1028.6
20180420160811 46 157 5.2 10.4 0.00 0.00 0.00 57 1028.7
20180420160311 46 123 4.3 7.8 0.00 0.00 0.00 59 1028.8
20180420155811 46 126 5.2 6.1 0.00 0.00 0.00 59 1028.8
20180420155310 45 159 4.3 5.2 0.00 0.00 0.00 61 1028.8
20180420154809 45 110 5.2 7.8 0.00 0.00 0.00 61 1028.9
20180420154308 44 158 5.2 7.0 0.00 0.00 0.00 62 1028.8
20180420153808 44 111 4.3 6.1 0.00 0.00 0.00 64 1028.7
20180420153308 44 128 2.6 6.1 0.00 0.00 0.00 64 1028.6
20180420152808 43 103 2.6 5.2 0.00 0.00 0.00 65 1028.7
20180420152308 43 145 4.3 6.1 0.00 0.00 0.00 65 1028.7
20180420151808 42 112 2.6 4.3 0.00 0.00 0.00 67 1028.7
20180420151308 42 107 5.2 6.1 0.00 0.00 0.00 66 1028.7
20180420150808 41 140 4.3 5.2 0.00 0.00 0.00 67 1028.8
20180420150308 41 110 2.6 4.3 0.00 0.00 0.00 68 1028.9
20180420145808 41 118 5.2 7.0 0.00 0.00 0.00 67 1029.0
20180420145308 40 121 4.3 6.1 0.00 0.00 0.00 68 1029.0
20180420144808 40 102 2.6 6.1 0.00 0.00 0.00 69 1028.9
20180420144312 40 113 2.6 4.3 0.00 0.00 0.00 70 1028.9
20180420143812 39 110 2.6 4.3 0.00 0.00 0.00 70 1029.0
20180420143311 39 101 2.6 4.3 0.00 0.00 0.00 71 1029.0
20180420142812 39 89 4.3 5.2 0.00 0.00 0.00 71 1029.0
20180420142311 38 122 5.2 7.0 0.00 0.00 0.00 72 1029.0
20180420141811 38 100 4.3 6.1 0.00 0.00 0.00 72 1029.1
20180420141311 37 102 5.2 7.0 0.00 0.00 0.00 72 1029.0
20180420140811 37 98 5.2 7.0 0.00 0.00 0.00 72 1029.0
20180420140311 37 92 5.2 7.0 0.00 0.00 0.00 72 1029.0
20180420135811 37 98 4.3 6.1 0.00 0.00 0.00 72 1029.1
20180420135311 37 100 4.3 7.0 0.00 0.00 0.00 72 1029.2
20180420134811 36 97 4.3 6.1 0.00 0.00 0.00 72 1029.3
20180420134311 36 100 1.7 4.3 0.00 0.00 0.00 73 1029.3
20180420133811 36 102 5.2 6.1 0.00 0.00 0.00 72 1029.2
20180420133311 36 95 4.3 7.0 0.00 0.00 0.00 72 1029.2
20180420132810 36 99 2.6 5.2 0.00 0.00 0.00 73 1029.1
20180420132310 36 111 5.2 7.0 0.00 0.00 0.00 73 1029.1
20180420131810 36 106 5.2 7.0 0.00 0.00 0.00 73 1029.1
20180420131310 36 106 4.3 6.1 0.00 0.00 0.00 73 1029.1
20180420130809 35 86 5.2 7.0 0.00 0.00 0.00 74 1029.0
20180420130309 35 109 5.2 7.0 0.00 0.00 0.00 74 1029.0